User: anonymous   Login
Location: Mississauga
(43.5802°N, 79.6166°W)
Time: 15:31:42
(UTC-05:00)
Language:

Cosmos 1437 Rocket - Orbit

View from above orbital plane
View from above orbital plane
View from above satellite
View from above satellite

Ground track
Ground track

The orbit data is extracted from the following two-line orbital elements,

1 13771U 83003B   16036.91872670 +.00001787 +00000-0 +10968-3 0  9999
2 13771 081.1570 216.1653 0036230 206.5037 153.4336 15.09076083798776
Epoch (UTC): 05 February 2016 22:02:57
Eccentricity: 0.0036230
inclination: 81.1570°
perigee height: 514 km
apogee height: 564 km
right ascension of ascending node: 216.1653°
argument of perigee: 206.5037°
revolutions per day: 15.09076083
mean anomaly at epoch: 153.4336°
orbit number at epoch: 79877

The dashed part of the orbit path shows where the satellite is in the earth's shadow,  

DLR